Seattle, WA

4:22 PM PDT on September 26, 2016 (GMT -0700)
Boeing Field-King County International

Weather History for KBFI - March, 2013

Change the Weather History Date:

Sunday, March 3, 2013

  Actual Average Record
Temperature  
Mean Temperature 42 °F -  
Max Temperature 50 °F 48 °F 69 °F (1965)
Min Temperature 35 °F 37 °F 20 °F (1989)
Degree Days  
Heating Degree Days 22    
Moisture  
Dew Point 32 °F    
Average Humidity 68    
Maximum Humidity 89    
Minimum Humidity 39    
Precipitation  
Precipitation 0.00 in - - ()
Sea Level Pressure  
Sea Level Pressure 30.27 in    
Wind  
Wind Speed 4 mph (ESE)    
Max Wind Speed 8 mph    
Max Gust Speed -    
Visibility 10 miles    
Events      
Averages and records for this station are not official NWS values.
T = Trace of Precipitation, MM = Missing Value Source: NWS Daily Summary

Daily Weather History Graph

Daily Weather History Graph

Search for Another Location

Airport or City:

Trip Planner

Search our weather history database for the weather conditions in past years. The results will help you decide how hot, cold, wet, or windy it might be!

Date:

Astronomy

Mar. 03, 2013 Rise Set
Actual Time 6:45 AM PST 5:57 PM PST
Civil Twilight 6:14 AM PST 6:28 PM PST
Nautical Twilight 5:38 AM PST 7:04 PM PST
Astronomical Twilight 5:03 AM PST 7:39 PM PST
Moon 12:09 AM PST (3/3) 9:36 AM PST (3/3)
Length of Visible Light 12h 14m
Length of Day
11h 12m
Waning Gibbous, 62% of the Moon is Illuminated
Mar 3
Waning Gibbous
Mar 4
Last Quarter
Mar 11
New
Mar 19
First Quarter
Mar 27
Full

Hourly Weather History & Observations

Time (PST) Temp. Windchill Dew Point Humidity Pressure Visibility Wind Dir Wind Speed Gust Speed Precip Events Conditions
12:53 AM 41.0 °F 38.0 °F 36.0 °F 82% 30.21 in 10.0 mi ENE 4.6 mph - 0.00 in   Scattered Clouds
1:53 AM 39.0 °F 35.7 °F 34.0 °F 82% 30.23 in 10.0 mi SSE 4.6 mph - N/A   Partly Cloudy
2:53 AM 39.0 °F 34.8 °F 34.0 °F 82% 30.23 in 10.0 mi SE 5.8 mph - N/A   Scattered Clouds
3:53 AM 39.0 °F 34.8 °F 34.0 °F 82% 30.24 in 10.0 mi ESE 5.8 mph - N/A   Clear
4:53 AM 37.0 °F 33.3 °F 32.0 °F 82% 30.26 in 10.0 mi SSE 4.6 mph - N/A   Partly Cloudy
5:53 AM 35.1 °F 30.1 °F 32.0 °F 89% 30.27 in 10.0 mi SE 5.8 mph - N/A   Scattered Clouds
6:53 AM 35.1 °F 28.6 °F 30.9 °F 85% 30.28 in 10.0 mi SE 8.1 mph - N/A   Scattered Clouds
7:53 AM 39.0 °F 35.7 °F 33.1 °F 79% 30.28 in 10.0 mi East 4.6 mph - N/A   Partly Cloudy
8:53 AM 43.0 °F 40.3 °F 35.1 °F 74% 30.29 in 10.0 mi SE 4.6 mph - N/A   Partly Cloudy
9:53 AM 45.0 °F - 35.1 °F 68% 30.28 in 10.0 mi Calm Calm - N/A   Clear
10:53 AM 46.0 °F - 35.1 °F 66% 30.27 in 10.0 mi Calm Calm - N/A   Scattered Clouds
11:53 AM 46.9 °F - 33.1 °F 59% 30.27 in 10.0 mi Calm Calm - N/A   Scattered Clouds
12:53 PM 48.9 °F - 30.9 °F 50% 30.27 in 10.0 mi Calm Calm - N/A   Mostly Cloudy
1:53 PM 50.0 °F - 26.1 °F 39% 30.27 in 10.0 mi NNW 4.6 mph - N/A   Scattered Clouds
2:53 PM 50.0 °F - 30.9 °F 48% 30.27 in 10.0 mi Variable 6.9 mph - N/A   Scattered Clouds
3:53 PM 48.9 °F - 30.9 °F 50% 30.28 in 10.0 mi NW 8.1 mph - N/A   Scattered Clouds
4:53 PM 50.0 °F - 28.9 °F 44% 30.28 in 10.0 mi Calm Calm - N/A   Mostly Cloudy
5:53 PM 46.9 °F - 32.0 °F 56% 30.29 in 10.0 mi ENE 4.6 mph - N/A   Scattered Clouds
6:53 PM 46.0 °F 44.8 °F 30.9 °F 56% 30.30 in 10.0 mi NE 3.5 mph - N/A   Partly Cloudy
7:53 PM 45.0 °F - 32.0 °F 60% 30.30 in 10.0 mi Calm Calm - N/A   Partly Cloudy
8:53 PM 42.1 °F - 33.1 °F 70% 30.30 in 10.0 mi Calm Calm - N/A   Partly Cloudy
9:53 PM 42.1 °F - 33.1 °F 70% 30.30 in 10.0 mi Calm Calm - N/A   Clear
10:53 PM 39.0 °F 36.8 °F 32.0 °F 76% 30.31 in 10.0 mi SE 3.5 mph - N/A   Clear
11:53 PM 37.0 °F - 32.0 °F 82% 30.31 in 10.0 mi Calm Calm - N/A   Clear